DW3886 Weather Reports


time (UTC)temp
C
wind
direction
speed
KPH
gust
KPH
rain 1hr
cm
rain 24hr
cm
rain mn
cm
humidity
%
barometer
mb
20260507094037 6 158 1.6 6.4 0.00 0.00 0.00 59 1013.2
20260507093017 6 158 3.2 8.0 0.00 0.00 0.00 59 1013.6
20260507092017 6 158 3.2 8.0 0.00 0.00 0.00 59 1013.7
20260507091037 6 158 1.6 8.0 0.00 0.00 0.00 60 1014.0
20260507090022 6 0.0 3.2 0.00 0.00 0.00 60 1014.2
20260507085017 6 0.0 6.4 0.00 0.00 0.00 61 1014.3
20260507084118 6 0.0 0.0 0.00 0.00 0.00 62 1014.3
20260507083017 6 0.0 0.0 0.00 0.00 0.00 60 1014.3
20260507082017 6 0.0 0.0 0.00 0.00 0.00 60 1014.4
20260507081057 6 0.0 6.4 0.00 0.00 0.00 60 1014.5
20260507080017 6 180 1.6 6.4 0.00 0.00 0.00 60 1014.6
20260507075018 6 0.0 0.0 0.00 0.00 0.00 60 1014.6
20260507074037 6 0.0 3.2 0.00 0.00 0.00 60 1014.6
20260507073017 5 0.0 4.8 0.00 0.00 0.00 60 1014.8
20260507072017 5 203 1.6 6.4 0.00 0.00 0.00 60 1014.9
20260507071017 5 180 1.6 3.2 0.00 0.00 0.00 61 1014.9
20260507070037 5 180 1.6 4.8 0.00 0.00 0.00 62 1015.0
20260507065017 5 0.0 0.0 0.00 0.00 0.00 63 1015.0
20260507064017 5 0.0 4.8 0.00 0.00 0.00 64 1015.1
20260507063017 5 0.0 3.2 0.00 0.00 0.00 64 1015.2
20260507062017 5 0.0 0.0 0.00 0.00 0.00 65 1015.3
20260507061017 5 0.0 0.0 0.00 0.00 0.00 63 1015.2
20260507060017 5 0.0 3.2 0.00 0.00 0.00 63 1015.3
20260507055017 5 0.0 0.0 0.00 0.00 0.00 63 1015.4
20260507054037 5 0.0 1.6 0.00 0.00 0.00 61 1015.5
20260507053017 5 203 1.6 3.2 0.00 0.00 0.00 62 1015.5
20260507052017 5 248 1.6 3.2 0.00 0.00 0.00 63 1015.5
20260507051058 5 0.0 3.2 0.00 0.00 0.00 64 1015.5
20260507050017 5 0.0 0.0 0.00 0.00 0.00 63 1015.5
20260507045016 5 0.0 0.0 0.00 0.00 0.00 62 1015.6
20260507044016 5 0.0 0.0 0.00 0.00 0.00 61 1015.6
20260507043016 6 0.0 0.0 0.00 0.00 0.00 60 1015.7
20260507042016 6 0.0 0.0 0.00 0.00 0.00 59 1015.9
20260507041016 6 0.0 0.0 0.00 0.00 0.00 59 1015.9
20260507040016 6 0.0 0.0 0.00 0.00 0.00 59 1016.0
20260507035016 6 0.0 0.0 0.00 0.00 0.00 62 1016.1
20260507034016 6 0.0 0.0 0.00 0.00 0.00 65 1016.1
20260507033016 5 0.0 1.6 0.00 0.00 0.00 66 1016.1
20260507032016 5 0.0 1.6 0.00 0.00 0.00 62 1016.1
20260507031016 5 0.0 0.0 0.00 0.00 0.00 61 1016.0
20260507030021 6 0.0 0.0 0.00 0.00 0.00 61 1016.2
20260507025016 6 0.0 0.0 0.00 0.00 0.00 61 1016.2
20260507024016 6 0.0 0.0 0.00 0.00 0.00 60 1016.2
20260507023016 6 0.0 0.0 0.00 0.00 0.00 57 1016.2
20260507022016 7 0.0 0.0 0.00 0.00 0.00 57 1016.2
20260507021016 7 0.0 0.0 0.00 0.00 0.00 53 1016.0
20260507020016 8 0.0 0.0 0.00 0.00 0.00 51 1016.0
20260507015016 8 0.0 0.0 0.00 0.00 0.00 47 1016.0
20260507014056 9 0.0 0.0 0.00 0.00 0.00 42 1016.0
20260507013016 10 0.0 1.6 0.00 0.00 0.00 40 1016.0
20260507012016 10 0.0 3.2 0.00 0.00 0.00 40 1016.0
20260507011016 11 293 1.6 4.8 0.00 0.00 0.00 41 1015.9
20260507010016 11 315 1.6 9.7 0.00 0.00 0.00 39 1015.9
20260507005016 12 315 1.6 4.8 0.00 0.00 0.00 38 1015.9
20260507004016 12 270 1.6 6.4 0.00 0.00 0.00 37 1015.9
20260507003056 13 293 1.6 3.2 0.00 0.00 0.00 36 1016.1
20260507002016 13 315 1.6 4.8 0.00 0.00 0.00 37 1016.2
20260507001016 13 293 3.2 6.4 0.00 0.00 0.00 35 1016.3
20260507000036 13 293 4.8 9.7 0.00 0.00 0.00 35 1016.3
20260506235016 13 293 3.2 9.7 0.00 0.00 0.00 38 1016.2
20260506234016 13 293 4.8 11.3 0.00 0.00 0.00 36 1016.3
20260506233016 12 248 1.6 8.0 0.00 0.00 0.00 39 1016.4
20260506232016 12 293 4.8 11.3 0.00 0.00 0.00 35 1016.5
20260506231016 13 293 3.2 8.0 0.00 0.00 0.00 35 1016.6
20260506230016 13 270 4.8 20.9 0.00 0.00 0.00 35 1016.7
20260506225016 13 293 3.2 14.5 0.00 0.00 0.00 41 1016.8
20260506224036 12 270 4.8 14.5 0.00 0.00 0.00 36 1016.6
20260506223036 12 248 4.8 11.3 0.00 0.00 0.00 36 1016.6
20260506222036 12 270 6.4 11.3 0.00 0.00 0.00 36 1016.6
20260506221036 12 293 4.8 17.7 0.00 0.00 0.00 39 1016.7
20260506220015 13 293 6.4 16.1 0.00 0.00 0.00 37 1016.9
20260506215016 13 293 6.4 12.9 0.00 0.00 0.00 40 1016.9
20260506214016 12 270 4.8 17.7 0.00 0.00 0.00 40 1016.8
20260506213016 13 270 4.8 9.7 0.00 0.00 0.00 38 1016.8
20260506212016 13 293 4.8 12.9 0.00 0.00 0.00 39 1016.9
20260506211016 12 248 8.0 24.1 0.00 0.00 0.00 38 1017.0
20260506210016 13 270 4.8 11.3 0.00 0.00 0.00 40 1017.1
20260506205016 13 270 6.4 17.7 0.00 0.00 0.00 38 1017.2
20260506204016 14 270 6.4 12.9 0.00 0.00 0.00 40 1017.3
20260506203016 13 293 6.4 22.5 0.00 0.00 0.00 43 1017.1
20260506202036 12 293 4.8 11.3 0.00 0.00 0.00 43 1017.2
20260506201016 13 293 4.8 14.5 0.00 0.00 0.00 39 1017.3
20260506200016 12 293 4.8 17.7 0.00 0.00 0.00 40 1017.4
20260506195016 12 293 6.4 19.3 0.00 0.00 0.00 39 1017.4
20260506194036 12 293 6.4 16.1 0.00 0.00 0.00 42 1017.4
20260506193016 12 293 4.8 14.5 0.00 0.00 0.00 43 1017.5
20260506192015 12 270 4.8 14.5 0.00 0.00 0.00 43 1017.6
20260506191015 12 293 4.8 14.5 0.00 0.00 0.00 41 1017.6
20260506190016 12 293 6.4 17.7 0.00 0.00 0.00 42 1017.6
20260506185016 12 293 4.8 16.1 0.00 0.00 0.00 43 1017.7
20260506184016 11 270 4.8 16.1 0.00 0.00 0.00 40 1017.9
20260506183015 11 248 6.4 19.3 0.00 0.00 0.00 45 1017.8
20260506182016 11 270 6.4 16.1 0.00 0.00 0.00 41 1018.0
20260506181036 11 293 4.8 11.3 0.00 0.00 0.00 42 1018.0
20260506180036 11 270 3.2 11.3 0.00 0.00 0.00 47 1018.3
20260506175016 11 315 3.2 9.7 0.00 0.00 0.00 45 1018.3
20260506174016 11 315 4.8 12.9 0.00 0.00 0.00 47 1018.3
20260506173016 10 270 3.2 11.3 0.00 0.00 0.00 47 1018.5
20260506172015 10 270 4.8 17.7 0.00 0.00 0.00 43 1018.6
20260506171016 11 248 6.4 14.5 0.00 0.00 0.00 45 1018.6
20260506170016 10 293 4.8 12.9 0.00 0.00 0.00 48 1018.6
20260506165015 10 293 4.8 12.9 0.00 0.00 0.00 46 1018.5
20260506164016 10 270 4.8 9.7 0.00 0.00 0.00 45 1018.5
20260506163015 10 293 4.8 11.3 0.00 0.00 0.00 45 1018.6
20260506162015 10 270 6.4 17.7 0.00 0.00 0.00 44 1018.5
20260506161016 10 293 4.8 12.9 0.00 0.00 0.00 46 1018.4
20260506160015 10 293 4.8 11.3 0.00 0.00 0.00 48 1018.5
20260506155036 10 293 4.8 14.5 0.00 0.00 0.00 48 1018.6
20260506154016 11 293 3.2 8.0 0.00 0.00 0.00 46 1018.6
20260506153015 11 270 6.4 16.1 0.00 0.00 0.00 46 1018.6
20260506152015 10 293 3.2 8.0 0.00 0.00 0.00 52 1018.5
20260506151016 10 315 3.2 8.0 0.00 0.00 0.00 52 1018.6
20260506150015 10 315 4.8 12.9 0.00 0.00 0.00 49 1018.5
20260506145016 10 293 4.8 12.9 0.00 0.00 0.00 50 1018.4
20260506144015 9 293 3.2 6.4 0.00 0.00 0.00 55 1018.5
20260506143015 8 270 4.8 11.3 0.00 0.00 0.00 52 1018.5
20260506142016 9 248 4.8 9.7 0.00 0.00 0.00 50 1018.5
20260506141016 9 315 1.6 6.4 0.00 0.00 0.00 53 1018.4
20260506140036 8 270 3.2 8.0 0.00 0.00 0.00 55 1018.4
20260506135015 8 293 1.6 6.4 0.00 0.00 0.00 55 1018.2
20260506134036 8 315 3.2 8.0 0.00 0.00 0.00 59 1018.1
20260506133015 7 293 1.6 6.4 0.00 0.00 0.00 59 1018.0
20260506132016 7 338 3.2 8.0 0.00 0.00 0.00 57 1017.9
20260506131015 7 338 1.6 6.4 0.00 0.00 0.00 63 1017.9
20260506130015 6 293 3.2 9.7 0.00 0.00 0.00 61 1017.7
20260506125015 5 315 1.6 6.4 0.00 0.00 0.00 65 1017.6
20260506124035 5 315 1.6 4.8 0.00 0.00 0.00 67 1017.4
20260506123015 4 315 1.6 4.8 0.00 0.00 0.00 68 1017.3
20260506122016 3 0.0 3.2 0.00 0.00 0.00 70 1017.0
20260506121016 3 0.0 0.0 0.00 0.00 0.00 72 1017.0
20260506120036 3 0.0 0.0 0.00 0.00 0.00 72 1017.0
20260506115036 3 0.0 0.0 0.00 0.00 0.00 71 1016.8
20260506114015 3 0.0 0.0 0.00 0.00 0.00 70 1016.7
20260506113015 3 0.0 3.2 0.00 0.00 0.00 69 1016.5
20260506112015 3 0.0 4.8 0.00 0.00 0.00 68 1016.4
20260506111015 3 0.0 1.6 0.00 0.00 0.00 67 1016.3
20260506110015 3 0.0 1.6 0.00 0.00 0.00 67 1016.2
20260506105015 4 0.0 1.6 0.00 0.00 0.00 66 1016.2
20260506104015 4 315 1.6 4.8 0.00 0.00 0.00 65 1016.0
20260506103015 4 315 1.6 3.2 0.00 0.00 0.00 65 1015.8
20260506102015 4 315 1.6 4.8 0.00 0.00 0.00 65 1015.7
20260506101016 4 315 1.6 4.8 0.00 0.00 0.00 64 1015.6
20260506100015 5 0 1.6 6.4 0.00 0.00 0.00 64 1015.7
20260506095015 5 338 1.6 6.4 0.00 0.00 0.00 64 1015.7